STARLINK-4674 (53591 NORAD) Tracking and Keplerian Element Data

This shows tracking and keplerian element data for the satellite.

Feedback or suggestion? Click here.




ElementValue
Catalog53591
NameSTARLINK-4674
Epoch Orbit1309
Epoch Day325.25001157
Epoch Year2022
RAAN251.2172
Inclination53.2147
Eccentricity0.0001211
Argument of Perigee71.2292
Mean Anonmoly264.7374
Mean Motion15.0880549
Decay Rate0.00041917
L11 53591U 22104D 22325.25001157 .00041917 00000+0 26387-2 0 9996
L22 53591 53.2147 251.2172 0001211 71.2292 264.7374 15.08805490 13091



Live tracking and technical data element details for STARLINK-4674 (NORAD 53591). STARLINK-4674 can be tracked NOW for your location showing map with azimuth and elevation plus other details from your city location.







IsCatalogInMostPopularTable: catalog: 53591, numindb: -1

Insert: records affected: 1


GetName: 53591 STARLINK-4674

Hit Count: inserted at: Thu, 08 Dec 2022 20:41:41 GMT